Location: Newark
(52.3500°N, 175.9667°E)
Time: 22:14:18
(UTC+00:00)

Altair - Pass Details

Date: 27 April 2021
Orbit: 1501 x 1683 km, 47.2° (Epoch: 05 May)

Event Time Altitude Azimuth Distance (km) Brightness Sun altitude
Rises 13:51:11 0° 179° (S) 4,916 - -20.4°
Exits shadow 13:56:04 10° 159° (SSE) 3,921 9.2 -20.0°
Reaches altitude 10° 13:56:06 10° 159° (SSE) 3,916 9.2 -20.0°
Maximum altitude 14:01:19 16° 127° (SE) 3,456 9.2 -19.7°
Drops below altitude 10° 14:06:29 10° 95° (E) 3,865 9.9 -19.3°
Sets 14:11:14 0° 75° (ENE) 4,820 10.8 -18.9°
